OPS 9327

operational
NORAD ID: 2654 Int'l Des: 1967-003 Owner: AFSSD Country: US
MEOCIRCULAR

About OPS 9327

Description loading...

Live Position

Loading 3D Globe...

Upcoming Passes

Altitude History

Altitude vs Time

uPlot chart will show altitude changes over time

Two-Line Element Set

1 2654U 67003G 25312.29362714 -.00000118 00000-0 00000+0 0 9990
2 2654 7.7307 49.1330 0055781 45.1710 304.1670 1.07511796137095
Epoch: Nov 8, 2025 • Age: 48 hours

Current Status

Altitude 33646.3 km
Velocity 3.16 km/s
Sub-Earth Point 5.62°N, 62.88°W
Type other

Large Constellations

Loading constellations...